Hagatna, GU (96910)

12:56 PM ChST on November 18, 2017 (GMT +1000)
Maite | | Change Station

Elev 140 ft 13.48 °N, 144.76 °E | Updated 1 second ago

Clear
Clear
86.9 °F
Feels Like 101 °F
N
10.0
Wind Variable Wind from SE
Gusts 22.0 mph

Today
High -- | Low -- °F
--% Chance of Precip.
Yesterday
High -- | Low -- °F
Precip. -- in
Pressure 29.77 in
Visibility 10.0 miles
Clouds Clear
Heat Index 101 °F
Dew Point 79 °F
Humidity 78%
Rainfall 0.00 in
Snow Depth Not available.
6:21 AM 5:50 PM
Waning Crescent, 0% visible
METAR PGUM 180254Z 11013G18KT 10SM CLR 31/26 A2979 RMK AO2 SLP080 T03060256 58020
Pressure 29.77 in
Visibility 10.0 miles
Clouds Clear
Heat Index 101 °F
Dew Point 79 °F
Humidity 78%
Rainfall 0.00 in
Snow Depth Not available.
6:21 AM 5:50 PM
Waning Crescent, 0% visible
METAR PGUM 180254Z 11013G18KT 10SM CLR 31/26 A2979 RMK AO2 SLP080 T03060256 58020

Get Severe Weather Alerts

Thanks for signing up!

Be on the lookout for a verification email in your inbox.

You'll start receiving the daily forecast at 6 AM.

×

10-Day Weather Forecast

Almanac

Astronomy

Nov. 18, 2017 Rise Set
Actual Time
Civil Twilight
Nautical Twilight
Astronomical Twilight
Moon
Length of Visible Light
Length of Day
Tomorrow will be .
, % of the Moon is Illuminated

Today's Extremes

State Highs State Lows

Community

WunderPhotos

Category 6

Welcome to Category 6. This is the collective home for Weather Underground's featured writeups by Dr. Jeff Masters (right), Bob Henson (left), Chris Burt, and other regular contributors.

Nearby

Air Quality

  Air Quality AQ Index Pollutant
Not available.

Snow Depth

Station Depth Elevation

Earthquake Activity

City Distance Mag. Time & Date
Minimum magnitude displayed is 2.5.

Coastal Water Temperatures

Place Temperature

Stations

Nearby Weather Stations

Station Location Temp. Windchill Dew Point Humidity Wind Precip. Elev Updated Type
                   

Watches & Warnings

There are currently no watches in effect.